Location: Unspecified
(48.7670°N, 0.0000°E)
Time: 01:40:09
(UTC+00:00)

S-56A Canister/Altair - Pass Details

Date: 23 October 2019
Orbit: 634 x 2498 km, 38.9° (Epoch: 14 November)

Event Time Altitude Azimuth Distance (km) Brightness Sun altitude
Exits shadow 02:40:15 28° 131° (SE) 2,046 9.7 -37.8°
Drops below altitude 10° 02:45:28 10° 101° (ESE) 3,546 11.4 -37.0°
Sets 02:49:28 0° 94° (E) 4,863 12.3 -36.4°
